[TLELIST] Archives

 

[list_settings.list_name] Current TLEs

October 15th 2011 PST

HST 1 20580U 90037B 11285.23952254 +.00002360 +00000-0 +16503-3 0 08508 2 20580 028.4712 331.7207 0003108 280.8947 079.1276 15.01609498977260 ISS (ZARYA) 1 25544U 98067A 11285.91900602 +.00007956 +00000-0 +10000-3 0 02347 2 25544 051.6409 288.0749 0016408 320.9217 117.1587 15.60589610739299 CXO 1 25867U 99040B 11285.33333333 +.00000144 +00000-0 +00000-0 0 06537 2 25867 070.2943 023.5165 8692127 277.2261 357.5356 00.37807202008213 ____________________________________________________________________ These 2-Line ...Continue Reading

[list_settings.list_name] Current TLEs

October 14th 2011 PST

HST 1 20580U 90037B 11284.24255427 +.00002451 +00000-0 +17187-3 0 08494 2 20580 028.4710 338.2313 0003090 272.9518 087.0678 15.01605333977116 ISS (ZARYA) 1 25544U 98067A 11285.21866318 .00022849 00000-0 27508-3 0 2298 2 25544 051.6401 291.5975 0016069 318.0696 142.7919 15.60571295739184 CXO 1 25867U 99040B 11285.33333333 +.00000144 +00000-0 +00000-0 0 06537 2 25867 070.2943 023.5165 8692127 277.2261 357.5356 00.37807202008213 ____________________________________________________________________ These 2-Line ...Continue Reading

[list_settings.list_name] Current TLEs

October 12th 2011 PST

HST 1 20580U 90037B 11281.58396110 +.00001888 +00000-0 +12955-3 0 08472 2 20580 028.4709 355.6051 0003328 238.8706 121.1542 15.01593037976712 ISS (ZARYA) 1 25544U 98067A 11282.90667471 +.00018737 +00000-0 +22785-3 0 02147 2 25544 051.6417 303.2331 0016029 308.5995 115.1543 15.60453722738821 CXO 1 25867U 99040B 11282.70833333 +.00000204 +00000-0 +00000-0 0 06526 2 25867 070.2720 023.7149 8693089 277.2074 000.2031 00.37809531008208 ____________________________________________________________________ These 2-Line ...Continue Reading

[list_settings.list_name] Current TLEs

October 11th 2011 PST

HST 1 20580U 90037B 11280.58698800 +.00002511 +00000-0 +17644-3 0 08465 2 20580 028.4704 002.1202 0003440 226.9574 133.0939 15.01589504976564 ISS (ZARYA) 1 25544U 98067A 11282.83004630 .00018714 00000-0 22759-3 0 2136 2 25544 051.6416 303.6187 0016092 308.3388 044.6575 15.60450651738804 CXO 1 25867U 99040B 11282.70833333 +.00000204 +00000-0 +00000-0 0 06526 2 25867 070.2720 023.7149 8693089 277.2074 000.2031 00.37809531008208 ____________________________________________________________________ These 2-Line ...Continue Reading

[list_settings.list_name] Current TLEs

October 10th 2011 PST

HST 1 20580U 90037B 11278.65948814 +.00002055 +00000-0 +14217-3 0 08458 2 20580 028.4709 014.7171 0003450 211.7045 148.3349 15.01579291976273 ISS (ZARYA) 1 25544U 98067A 11280.91120370 +.00032281 +00000-0 +38830-3 0 01998 2 25544 051.6411 313.2799 0016031 301.1960 065.5377 15.60388094738516 CXO 1 25867U 99040B 11280.04166667 .00000234 00000-0 00000+0 0 6511 2 25867 070.2513 023.8945 8692197 277.1857 357.2347 00.37806856 8190 ____________________________________________________________________ These 2-Line ...Continue Reading

[list_settings.list_name] Current TLEs

October 9th 2011 PST

HST 1 20580U 90037B 11278.65948814 +.00002055 +00000-0 +14217-3 0 08458 2 20580 028.4709 014.7171 0003450 211.7045 148.3349 15.01579291976273 ISS (ZARYA) 1 25544U 98067A 11279.96126953 +.00021234 +00000-0 +25829-3 0 01927 2 25544 051.6429 318.0563 0016234 297.5037 129.6269 15.60347653738366 CXO 1 25867U 99040B 11280.04166667 .00000234 00000-0 00000+0 0 6511 2 25867 070.2513 023.8945 8692197 277.1857 357.2347 00.37806856 8190 ____________________________________________________________________ These 2-Line ...Continue Reading

[list_settings.list_name] Current TLEs

October 8th 2011 PST

HST 1 20580U 90037B 11278.65948814 +.00002055 +00000-0 +14217-3 0 08458 2 20580 028.4709 014.7171 0003450 211.7045 148.3349 15.01579291976273 ISS (ZARYA) 1 25544U 98067A 11280.22026542 .00017512 00000-0 21423-3 0 1943 2 25544 051.6415 316.7519 0016233 298.3426 144.5883 15.60348525738409 CXO 1 25867U 99040B 11280.04166667 .00000234 00000-0 00000+0 0 6511 2 25867 070.2513 023.8945 8692197 277.1857 357.2347 00.37806856 8190 ____________________________________________________________________ These 2-Line ...Continue Reading

[list_settings.list_name] Current TLEs

October 7th 2011 PST

HST 1 20580U 90037B 11275.73498684 .00002099 00000-0 14549-3 0 8444 2 20580 028.4703 033.8287 0003528 182.0873 177.9591 15.01568413975834 ISS (ZARYA) 1 25544U 98067A 11279.43695587 .00018194 00000-0 21616-3 0 1890 2 25544 051.6402 320.6976 0016387 295.1545 064.8268 15.60319287142349 CXO 1 25867U 99040B 11280.04166667 .00000234 00000-0 00000+0 0 6511 2 25867 070.2513 023.8945 8692197 277.1857 357.2347 00.37806856 8190 ____________________________________________________________________ These 2-Line ...Continue Reading

[list_settings.list_name] Current TLEs

October 6th 2011 PST

HST 1 20580U 90037B 11275.73498684 .00002099 00000-0 14549-3 0 8444 2 20580 028.4703 033.8287 0003528 182.0873 177.9591 15.01568413975834 ISS (ZARYA) 1 25544U 98067A 11277.89675926 .00019083 00000-0 23352-3 0 1801 2 25544 051.6418 328.4408 0016271 288.9723 053.8957 15.60269899738035 CXO 1 25867U 99040B 11280.04166667 .00000234 00000-0 00000+0 0 6511 2 25867 070.2513 023.8945 8692197 277.1857 357.2347 00.37806856 8190 ____________________________________________________________________ These 2-Line ...Continue Reading

[list_settings.list_name] Current TLEs

October 3rd 2011 PST

HST 1 20580U 90037B 11273.80746214 .00002214 00000-0 15423-3 0 8435 2 20580 028.4698 046.4237 0003603 164.0013 196.0507 15.01561807975549 ISS (ZARYA) 1 25544U 98067A 11275.22712959 -.00000906 00000-0 -44256-5 0 1640 2 25544 051.6413 341.8745 0016534 278.9327 179.2046 15.60150506737624 CXO 1 25867U 99040B 11274.75000000 -.00000046 00000-0 00000+0 0 6488 2 25867 070.2141 024.2202 8689651 277.1412 357.0194 00.37809877 8178 ____________________________________________________________________ These 2-Line ...Continue Reading
  • This mailing list is a public mailing list - anyone may join or leave, at any time.
  • This mailing list is announce-only.

International Space Station (ISS) / Hubble Space Telescope (HST) / Chandra X-Ray Observatory Orbital Data via EMAIL

Privacy Policy:

Private list